Year,Month,Day,Hour,Minute,Value (Times are PST for temperature in C)
2013,07,17,00,00,19.90
2013,07,17,00,01,19.80
2013,07,17,00,02,19.80
2013,07,17,00,03,19.70
2013,07,17,00,04,19.70
2013,07,17,00,05,19.60
2013,07,17,00,06,19.60
2013,07,17,00,07,19.60
2013,07,17,00,08,19.60
2013,07,17,00,09,19.50
2013,07,17,00,10,19.50
2013,07,17,00,11,19.50
2013,07,17,00,12,19.50
2013,07,17,00,13,19.40
2013,07,17,00,14,19.40
2013,07,17,00,15,19.40
2013,07,17,00,16,19.40
2013,07,17,00,17,19.40
2013,07,17,00,18,19.30
2013,07,17,00,19,19.30
2013,07,17,00,20,19.30
2013,07,17,00,21,19.30
2013,07,17,00,22,19.30
2013,07,17,00,23,19.20
2013,07,17,00,24,19.20
2013,07,17,00,25,19.20
2013,07,17,00,26,19.20
2013,07,17,00,27,19.20
2013,07,17,00,28,19.10
2013,07,17,00,29,19.10
2013,07,17,00,30,19.10
2013,07,17,00,31,19.00
2013,07,17,00,32,19.00
2013,07,17,00,33,18.90
2013,07,17,00,34,18.90
2013,07,17,00,35,18.80
2013,07,17,00,36,18.80
2013,07,17,00,37,18.80
2013,07,17,00,38,18.80
2013,07,17,00,39,18.80
2013,07,17,00,40,18.70
2013,07,17,00,41,18.70
2013,07,17,00,42,18.70
2013,07,17,00,43,18.70
2013,07,17,00,44,18.60
2013,07,17,00,45,18.60
2013,07,17,00,46,18.60
2013,07,17,00,47,18.60
2013,07,17,00,48,18.50
2013,07,17,00,49,18.50
2013,07,17,00,50,18.40
2013,07,17,00,51,18.40
2013,07,17,00,52,18.40
2013,07,17,00,53,18.40
2013,07,17,00,54,18.50
2013,07,17,00,55,18.50
2013,07,17,00,56,18.50
2013,07,17,00,57,18.60
2013,07,17,00,58,18.60
2013,07,17,00,59,18.60
2013,07,17,01,00,18.60
2013,07,17,01,01,18.60
2013,07,17,01,02,18.60
2013,07,17,01,03,18.60
2013,07,17,01,04,18.60
2013,07,17,01,05,18.60
2013,07,17,01,06,18.60
2013,07,17,01,07,18.60
2013,07,17,01,08,18.60
2013,07,17,01,09,18.60
2013,07,17,01,10,18.60
2013,07,17,01,11,18.60
2013,07,17,01,12,18.60
2013,07,17,01,13,18.50
2013,07,17,01,14,18.50
2013,07,17,01,15,18.50
2013,07,17,01,16,18.50
2013,07,17,01,17,18.40
2013,07,17,01,18,18.40
2013,07,17,01,19,18.40
2013,07,17,01,20,18.40
2013,07,17,01,21,18.40
2013,07,17,01,22,18.40
2013,07,17,01,23,18.30
2013,07,17,01,24,18.30
2013,07,17,01,25,18.30
2013,07,17,01,26,18.20
2013,07,17,01,27,18.20
2013,07,17,01,28,18.20
2013,07,17,01,29,18.20
2013,07,17,01,30,18.10
2013,07,17,01,31,18.10
2013,07,17,01,32,18.10
2013,07,17,01,33,18.10
2013,07,17,01,34,18.10
2013,07,17,01,35,18.10
2013,07,17,01,36,18.10
2013,07,17,01,37,18.00
2013,07,17,01,38,18.00
2013,07,17,01,39,18.00
2013,07,17,01,40,18.00
2013,07,17,01,41,17.90
2013,07,17,01,42,17.90
2013,07,17,01,43,17.90
2013,07,17,01,44,17.90
2013,07,17,01,45,17.90
2013,07,17,01,46,17.90
2013,07,17,01,47,17.90
2013,07,17,01,48,17.90
2013,07,17,01,49,17.90
2013,07,17,01,50,17.90
2013,07,17,01,51,17.90
2013,07,17,01,52,17.90
2013,07,17,01,53,17.90
2013,07,17,01,54,17.90
2013,07,17,01,55,17.90
2013,07,17,01,56,17.90
2013,07,17,01,57,17.90
2013,07,17,01,58,17.90
2013,07,17,01,59,17.90
2013,07,17,02,00,18.00
2013,07,17,02,01,18.00
2013,07,17,02,02,18.00
2013,07,17,02,03,18.00
2013,07,17,02,04,18.00
2013,07,17,02,05,18.00
2013,07,17,02,06,18.00
2013,07,17,02,07,18.00
2013,07,17,02,08,18.00
2013,07,17,02,09,18.00
2013,07,17,02,10,18.00
2013,07,17,02,11,18.00
2013,07,17,02,12,18.00
2013,07,17,02,13,18.00
2013,07,17,02,14,18.00
2013,07,17,02,15,17.90
2013,07,17,02,16,17.90
2013,07,17,02,17,17.90
2013,07,17,02,18,17.80
2013,07,17,02,19,17.80
2013,07,17,02,20,17.80
2013,07,17,02,21,17.80
2013,07,17,02,22,17.90
2013,07,17,02,23,17.90
2013,07,17,02,24,17.90
2013,07,17,02,25,17.90
2013,07,17,02,26,17.90
2013,07,17,02,27,17.90
2013,07,17,02,28,17.90
2013,07,17,02,29,17.90
2013,07,17,02,30,18.00
2013,07,17,02,31,18.00
2013,07,17,02,32,18.10
2013,07,17,02,33,18.10
2013,07,17,02,34,18.10
2013,07,17,02,35,18.10
2013,07,17,02,36,18.10
2013,07,17,02,37,18.10
2013,07,17,02,38,18.20
2013,07,17,02,39,18.20
2013,07,17,02,40,18.20
2013,07,17,02,41,18.20
2013,07,17,02,42,18.20
2013,07,17,02,43,18.20
2013,07,17,02,44,18.20
2013,07,17,02,45,18.20
2013,07,17,02,46,18.20
2013,07,17,02,47,18.20
2013,07,17,02,48,18.20
2013,07,17,02,49,18.20
2013,07,17,02,50,18.20
2013,07,17,02,51,18.20
2013,07,17,02,52,18.20
2013,07,17,02,53,18.20
2013,07,17,02,54,18.20
2013,07,17,02,55,18.20
2013,07,17,02,56,18.20
2013,07,17,02,57,18.20
2013,07,17,02,58,18.20
2013,07,17,02,59,18.20
2013,07,17,03,00,18.20
2013,07,17,03,01,18.20
2013,07,17,03,02,18.10
2013,07,17,03,06,18.10
2013,07,17,03,07,18.10
2013,07,17,03,08,18.10
2013,07,17,03,09,18.20
2013,07,17,03,10,18.20
2013,07,17,03,11,18.20
2013,07,17,03,12,18.20
2013,07,17,03,13,18.20
2013,07,17,03,14,18.20
2013,07,17,03,15,18.20
2013,07,17,03,16,18.30
2013,07,17,03,17,18.30
2013,07,17,03,18,18.30
2013,07,17,03,19,18.30
2013,07,17,03,20,18.30
2013,07,17,03,21,18.30
2013,07,17,03,22,18.30
2013,07,17,03,23,18.20
2013,07,17,03,24,18.20
2013,07,17,03,25,18.20
2013,07,17,03,26,18.20
2013,07,17,03,27,18.20
2013,07,17,03,28,18.20
2013,07,17,03,29,18.10
2013,07,17,03,30,18.10
2013,07,17,03,31,18.10
2013,07,17,03,32,18.10
2013,07,17,03,33,18.00
2013,07,17,03,34,18.00
2013,07,17,03,35,17.90
2013,07,17,03,36,17.90
2013,07,17,03,37,17.90
2013,07,17,03,38,17.80
2013,07,17,03,39,17.80
2013,07,17,03,40,17.80
2013,07,17,03,41,17.80
2013,07,17,03,42,17.80
2013,07,17,03,43,17.80
2013,07,17,03,44,17.80
2013,07,17,03,45,17.80
2013,07,17,03,46,17.80
2013,07,17,03,47,17.80
2013,07,17,03,48,17.80
2013,07,17,03,49,17.80
2013,07,17,03,50,17.80
2013,07,17,03,51,17.80
2013,07,17,03,52,17.80
2013,07,17,03,53,17.80
2013,07,17,03,54,17.80
2013,07,17,03,55,17.80
2013,07,17,03,56,17.80
2013,07,17,03,57,17.80
2013,07,17,03,58,17.80
2013,07,17,03,59,17.80
2013,07,17,04,00,17.70
2013,07,17,04,01,17.70
2013,07,17,04,02,17.70
2013,07,17,04,03,17.70
2013,07,17,04,04,17.70
2013,07,17,04,05,17.70
2013,07,17,04,06,17.70
2013,07,17,04,07,17.70
2013,07,17,04,08,17.70
2013,07,17,04,09,17.70
2013,07,17,04,10,17.70
2013,07,17,04,11,17.70
2013,07,17,04,12,17.60
2013,07,17,04,13,17.60
2013,07,17,04,14,17.60
2013,07,17,04,15,17.60
2013,07,17,04,16,17.60
2013,07,17,04,17,17.60
2013,07,17,04,18,17.60
2013,07,17,04,19,17.60
2013,07,17,04,20,17.60
2013,07,17,04,21,17.60
2013,07,17,04,22,17.60
2013,07,17,04,23,17.60
2013,07,17,04,24,17.50
2013,07,17,04,25,17.50
2013,07,17,04,26,17.50
2013,07,17,04,27,17.60
2013,07,17,04,28,17.60
2013,07,17,04,29,17.60
2013,07,17,04,30,17.60
2013,07,17,04,31,17.60
2013,07,17,04,32,17.60
2013,07,17,04,33,17.70
2013,07,17,04,34,17.70
2013,07,17,04,35,17.70
2013,07,17,04,36,17.70
2013,07,17,04,37,17.80
2013,07,17,04,38,17.80
2013,07,17,04,39,17.80
2013,07,17,04,40,17.80
2013,07,17,04,41,17.80
2013,07,17,04,42,17.80
2013,07,17,04,43,17.80
2013,07,17,04,44,17.80
2013,07,17,04,45,17.80
2013,07,17,04,46,17.80
2013,07,17,04,47,17.80
2013,07,17,04,48,17.80
2013,07,17,04,49,17.80
2013,07,17,04,50,17.80
2013,07,17,04,51,17.80
2013,07,17,04,52,17.80
2013,07,17,04,53,17.80
2013,07,17,04,54,17.80
2013,07,17,04,55,17.80
2013,07,17,04,56,17.80
2013,07,17,04,57,17.80
2013,07,17,04,58,17.80
2013,07,17,04,59,17.80
2013,07,17,05,00,17.80
2013,07,17,05,01,17.80
2013,07,17,05,02,17.80
2013,07,17,05,03,17.80
2013,07,17,05,04,17.80
2013,07,17,05,05,17.70
2013,07,17,05,06,17.70
2013,07,17,05,07,17.70
2013,07,17,05,08,17.70
2013,07,17,05,09,17.70
2013,07,17,05,10,17.70
2013,07,17,05,11,17.60
2013,07,17,05,12,17.60
2013,07,17,05,13,17.60
2013,07,17,05,14,17.60
2013,07,17,05,15,17.60
2013,07,17,05,16,17.50
2013,07,17,05,17,17.50
2013,07,17,05,18,17.40
2013,07,17,05,19,17.40
2013,07,17,05,20,17.40
2013,07,17,05,21,17.40
2013,07,17,05,22,17.40
2013,07,17,05,23,17.50
2013,07,17,05,24,17.50
2013,07,17,05,25,17.50
2013,07,17,05,26,17.50
2013,07,17,05,27,17.50
2013,07,17,05,28,17.60
2013,07,17,05,29,17.60
2013,07,17,05,30,17.50
2013,07,17,05,31,17.50
2013,07,17,05,32,17.50
2013,07,17,05,33,17.50
2013,07,17,05,34,17.40
2013,07,17,05,35,17.40
2013,07,17,05,36,17.40
2013,07,17,05,37,17.40
2013,07,17,05,38,17.40
2013,07,17,05,39,17.40
2013,07,17,05,40,17.40
2013,07,17,05,41,17.40
2013,07,17,05,42,17.40
2013,07,17,05,43,17.40
2013,07,17,05,44,17.40
2013,07,17,05,45,17.40
2013,07,17,05,46,17.40
2013,07,17,05,47,17.40
2013,07,17,05,48,17.40
2013,07,17,05,49,17.40
2013,07,17,05,50,17.40
2013,07,17,05,51,17.40
2013,07,17,05,52,17.40
2013,07,17,05,53,17.40
2013,07,17,05,54,17.50
2013,07,17,05,55,17.50
2013,07,17,05,56,17.50
2013,07,17,05,57,17.50
2013,07,17,05,58,17.50
2013,07,17,05,59,17.50
2013,07,17,06,00,17.50
2013,07,17,06,01,17.50
2013,07,17,06,02,17.50
2013,07,17,06,03,17.50
2013,07,17,06,04,17.50
2013,07,17,06,05,17.50
2013,07,17,06,06,17.50
2013,07,17,06,07,17.40
2013,07,17,06,08,17.40
2013,07,17,06,09,17.40
2013,07,17,06,10,17.40
2013,07,17,06,11,17.40
2013,07,17,06,12,17.30
2013,07,17,06,13,17.30
2013,07,17,06,14,17.30
2013,07,17,06,15,17.30
2013,07,17,06,16,17.20
2013,07,17,06,17,17.20
2013,07,17,06,18,17.20
2013,07,17,06,19,17.20
2013,07,17,06,20,17.20
2013,07,17,06,21,17.10
2013,07,17,06,22,17.10
2013,07,17,06,23,17.10
2013,07,17,06,24,17.10
2013,07,17,06,25,17.00
2013,07,17,06,26,17.00
2013,07,17,06,27,17.00
2013,07,17,06,28,17.00
2013,07,17,06,29,17.00
2013,07,17,06,30,17.00
2013,07,17,06,31,17.00
2013,07,17,06,32,17.00
2013,07,17,06,33,17.00
2013,07,17,06,34,17.00
2013,07,17,06,35,17.00
2013,07,17,06,36,17.00
2013,07,17,06,37,17.00
2013,07,17,06,38,17.00
2013,07,17,06,39,17.00
2013,07,17,06,40,17.00
2013,07,17,06,41,17.00
2013,07,17,06,42,17.00
2013,07,17,06,43,16.90
2013,07,17,06,44,16.90
2013,07,17,06,45,16.90
2013,07,17,06,46,16.90
2013,07,17,06,47,16.90
2013,07,17,06,48,16.90
2013,07,17,06,49,16.90
2013,07,17,06,50,16.80
2013,07,17,06,51,16.90
2013,07,17,06,52,16.90
2013,07,17,06,53,16.90
2013,07,17,06,54,16.90
2013,07,17,06,55,16.90
2013,07,17,06,56,16.90
2013,07,17,06,57,16.90
2013,07,17,06,58,16.90
2013,07,17,06,59,16.90
2013,07,17,07,00,16.90
2013,07,17,07,01,16.90
2013,07,17,07,02,16.90
2013,07,17,07,03,16.90
2013,07,17,07,04,16.90
2013,07,17,07,05,16.90
2013,07,17,07,06,16.90
2013,07,17,07,07,17.00
2013,07,17,07,08,17.00
2013,07,17,07,09,17.00
2013,07,17,07,10,17.10
2013,07,17,07,11,17.10
2013,07,17,07,12,17.10
2013,07,17,07,13,17.10
2013,07,17,07,14,17.10
2013,07,17,07,15,17.20
2013,07,17,07,16,17.20
2013,07,17,07,17,17.20
2013,07,17,07,18,17.20
2013,07,17,07,19,17.20
2013,07,17,07,20,17.30
2013,07,17,07,21,17.30
2013,07,17,07,22,17.30
2013,07,17,07,23,17.30
2013,07,17,07,24,17.30
2013,07,17,07,25,17.30
2013,07,17,07,26,17.30
2013,07,17,07,27,17.30
2013,07,17,07,28,17.40
2013,07,17,07,29,17.40
2013,07,17,07,30,17.40
2013,07,17,07,31,17.40
2013,07,17,07,32,17.40
2013,07,17,07,33,17.50
2013,07,17,07,34,17.50
2013,07,17,07,35,17.50
2013,07,17,07,36,17.60
2013,07,17,07,37,17.60
2013,07,17,07,38,17.60
2013,07,17,07,39,17.60
2013,07,17,07,40,17.60
2013,07,17,07,41,17.60
2013,07,17,07,42,17.70
2013,07,17,07,43,17.70
2013,07,17,07,44,17.70
2013,07,17,07,45,17.70
2013,07,17,07,46,17.70
2013,07,17,07,47,17.70
2013,07,17,07,48,17.70
2013,07,17,07,49,17.70
2013,07,17,07,50,17.70
2013,07,17,07,51,17.70
2013,07,17,07,52,17.70
2013,07,17,07,53,17.70
2013,07,17,07,54,17.70
2013,07,17,07,55,17.70
2013,07,17,07,56,17.70
2013,07,17,07,57,17.70
2013,07,17,07,58,17.70
2013,07,17,07,59,17.70
2013,07,17,08,00,17.70
2013,07,17,08,01,17.70
2013,07,17,08,02,17.70
2013,07,17,08,03,17.70
2013,07,17,08,04,17.70
2013,07,17,08,05,17.60
2013,07,17,08,06,17.60
2013,07,17,08,07,17.60
2013,07,17,08,08,17.60
2013,07,17,08,09,17.60
2013,07,17,08,10,17.60
2013,07,17,08,11,17.60
2013,07,17,08,12,17.60
2013,07,17,08,13,17.60
2013,07,17,08,14,17.60
2013,07,17,08,15,17.60
2013,07,17,08,16,17.50
2013,07,17,08,17,17.50
2013,07,17,08,18,17.50
2013,07,17,08,19,17.50
2013,07,17,08,20,17.50
2013,07,17,08,21,17.50
2013,07,17,08,22,17.40
2013,07,17,08,23,17.40
2013,07,17,08,24,17.40
2013,07,17,08,25,17.40
2013,07,17,08,26,17.40
2013,07,17,08,27,17.40
2013,07,17,08,28,17.40
2013,07,17,08,29,17.40
2013,07,17,08,30,17.40
2013,07,17,08,31,17.50
2013,07,17,08,32,17.50
2013,07,17,08,33,17.50
2013,07,17,08,34,17.50
2013,07,17,08,35,17.50
2013,07,17,08,36,17.60
2013,07,17,08,37,17.60
2013,07,17,08,38,17.60
2013,07,17,08,39,17.70
2013,07,17,08,40,17.80
2013,07,17,08,41,17.90
2013,07,17,08,42,17.90
2013,07,17,08,43,18.00
2013,07,17,08,44,18.10
2013,07,17,08,45,18.20
2013,07,17,08,46,18.20
2013,07,17,08,47,18.30
2013,07,17,08,48,18.30
2013,07,17,08,49,18.30
2013,07,17,08,50,18.20
2013,07,17,08,51,18.20
2013,07,17,08,52,18.20
2013,07,17,08,53,18.20
2013,07,17,08,54,18.20
2013,07,17,08,55,18.20
2013,07,17,08,56,18.20
2013,07,17,08,57,18.20
2013,07,17,08,58,18.30
2013,07,17,08,59,18.30
2013,07,17,09,00,18.40
2013,07,17,09,01,18.50
2013,07,17,09,02,18.50
2013,07,17,09,03,18.60
2013,07,17,09,04,18.70
2013,07,17,09,05,18.80
2013,07,17,09,06,18.80
2013,07,17,09,07,18.80
2013,07,17,09,08,18.80
2013,07,17,09,09,18.80
2013,07,17,09,10,18.80
2013,07,17,09,11,18.80
2013,07,17,09,12,18.80
2013,07,17,09,13,18.80
2013,07,17,09,14,18.70
2013,07,17,09,15,18.80
2013,07,17,09,16,18.80
2013,07,17,09,17,18.80
2013,07,17,09,18,18.90
2013,07,17,09,19,19.00
2013,07,17,09,20,19.00
2013,07,17,09,21,19.10
2013,07,17,09,22,19.20
2013,07,17,09,23,19.30
2013,07,17,09,24,19.40
2013,07,17,09,25,19.40
2013,07,17,09,26,19.50
2013,07,17,09,27,19.60
2013,07,17,09,28,19.60
2013,07,17,09,29,19.70
2013,07,17,09,30,19.80
2013,07,17,09,31,19.90
2013,07,17,09,32,19.90
2013,07,17,09,33,20.00
2013,07,17,09,34,20.00
2013,07,17,09,35,20.10
2013,07,17,09,36,20.00
2013,07,17,09,37,19.90
2013,07,17,09,38,19.70
2013,07,17,09,39,19.60
2013,07,17,09,40,19.50
2013,07,17,09,41,19.40
2013,07,17,09,42,19.30
2013,07,17,09,43,19.20
2013,07,17,09,44,19.20
2013,07,17,09,45,19.20
2013,07,17,09,46,19.20
2013,07,17,09,47,19.10
2013,07,17,09,48,19.10
2013,07,17,09,49,19.10
2013,07,17,09,50,19.00
2013,07,17,09,51,18.90
2013,07,17,09,52,18.90
2013,07,17,09,53,18.90
2013,07,17,09,54,18.90
2013,07,17,09,55,18.90
2013,07,17,09,56,18.90
2013,07,17,09,57,18.90
2013,07,17,09,58,19.00
2013,07,17,09,59,19.00
2013,07,17,10,00,19.10
2013,07,17,10,01,19.10
2013,07,17,10,02,19.10
2013,07,17,10,03,19.20
2013,07,17,10,04,19.10
2013,07,17,10,05,19.10
2013,07,17,10,06,19.10
2013,07,17,10,07,19.00
2013,07,17,10,08,19.00
2013,07,17,10,09,18.90
2013,07,17,10,10,18.90
2013,07,17,10,11,18.90
2013,07,17,10,12,18.90
2013,07,17,10,13,18.90
2013,07,17,10,14,18.90
2013,07,17,10,15,18.90
2013,07,17,10,16,18.90
2013,07,17,10,17,18.90
2013,07,17,10,18,18.90
2013,07,17,10,19,18.90
2013,07,17,10,20,18.90
2013,07,17,10,21,18.90
2013,07,17,10,22,19.00
2013,07,17,10,23,19.00
2013,07,17,10,24,18.90
2013,07,17,10,25,18.90
2013,07,17,10,26,18.90
2013,07,17,10,27,18.90
2013,07,17,10,28,18.90
2013,07,17,10,29,18.90
2013,07,17,10,30,18.90
2013,07,17,10,31,18.90
2013,07,17,10,32,19.00
2013,07,17,10,33,19.10
2013,07,17,10,34,19.20
2013,07,17,10,35,19.30
2013,07,17,10,36,19.40
2013,07,17,10,37,19.50
2013,07,17,10,38,19.60
2013,07,17,10,39,19.60
2013,07,17,10,40,19.50
2013,07,17,10,41,19.50
2013,07,17,10,42,19.40
2013,07,17,10,43,19.30
2013,07,17,10,44,19.30
2013,07,17,10,45,19.20
2013,07,17,10,46,19.20
2013,07,17,10,47,19.20
2013,07,17,10,48,19.20
2013,07,17,10,49,19.20
2013,07,17,10,50,19.20
2013,07,17,10,51,19.20
2013,07,17,10,52,19.20
2013,07,17,10,53,19.30
2013,07,17,10,54,19.30
2013,07,17,10,55,19.30
2013,07,17,10,56,19.40
2013,07,17,10,57,19.50
2013,07,17,10,58,19.50
2013,07,17,10,59,19.60
2013,07,17,11,00,19.70
2013,07,17,11,01,19.80
2013,07,17,11,02,19.90
2013,07,17,11,03,20.00
2013,07,17,11,04,20.10
2013,07,17,11,05,20.10
2013,07,17,11,06,20.20
2013,07,17,11,07,20.10
2013,07,17,11,08,20.10
2013,07,17,11,09,20.10
2013,07,17,11,10,20.00
2013,07,17,11,11,19.90
2013,07,17,11,12,19.80
2013,07,17,11,13,19.70
2013,07,17,11,14,19.70
2013,07,17,11,15,19.70
2013,07,17,11,16,19.70
2013,07,17,11,17,19.80
2013,07,17,11,18,19.80
2013,07,17,11,19,19.80
2013,07,17,11,20,19.90
2013,07,17,11,21,20.00
2013,07,17,11,22,20.10
2013,07,17,11,23,20.20
2013,07,17,11,24,20.20
2013,07,17,11,25,20.30
2013,07,17,11,26,20.30
2013,07,17,11,27,20.40
2013,07,17,11,28,20.40
2013,07,17,11,29,20.50
2013,07,17,11,30,20.50
2013,07,17,11,31,20.50
2013,07,17,11,32,20.50
2013,07,17,11,33,20.50
2013,07,17,11,34,20.30
2013,07,17,11,35,20.20
2013,07,17,11,36,20.10
2013,07,17,11,37,20.10
2013,07,17,11,38,20.10
2013,07,17,11,39,20.10
2013,07,17,11,40,20.20
2013,07,17,11,41,20.20
2013,07,17,11,42,20.30
2013,07,17,11,43,20.30
2013,07,17,11,44,20.40
2013,07,17,11,45,20.30
2013,07,17,11,46,20.30
2013,07,17,11,47,20.30
2013,07,17,11,48,20.40
2013,07,17,11,49,20.40
2013,07,17,11,50,20.50
2013,07,17,11,51,20.50
2013,07,17,11,52,20.40
2013,07,17,11,53,20.40
2013,07,17,11,54,20.40
2013,07,17,11,55,20.40
2013,07,17,11,56,20.40
2013,07,17,11,57,20.40
2013,07,17,11,58,20.40
2013,07,17,11,59,20.40
2013,07,17,12,00,20.40
2013,07,17,12,01,20.40
2013,07,17,12,02,20.40
2013,07,17,12,03,20.30
2013,07,17,12,04,20.30
2013,07,17,12,05,20.20
2013,07,17,12,06,20.20
2013,07,17,12,07,20.20
2013,07,17,12,08,20.20
2013,07,17,12,09,20.20
2013,07,17,12,10,20.30
2013,07,17,12,11,20.30
2013,07,17,12,12,20.30
2013,07,17,12,13,20.40
2013,07,17,12,14,20.40
2013,07,17,12,15,20.40
2013,07,17,12,16,20.50
2013,07,17,12,17,20.50
2013,07,17,12,18,20.60
2013,07,17,12,19,20.60
2013,07,17,12,20,20.70
2013,07,17,12,21,20.80
2013,07,17,12,22,20.80
2013,07,17,12,23,20.90
2013,07,17,12,24,20.80
2013,07,17,12,25,20.80
2013,07,17,12,26,20.70
2013,07,17,12,27,20.60
2013,07,17,12,28,20.50
2013,07,17,12,29,20.40
2013,07,17,12,30,20.30
2013,07,17,12,31,20.20
2013,07,17,12,32,20.20
2013,07,17,12,33,20.30
2013,07,17,12,34,20.30
2013,07,17,12,35,20.40
2013,07,17,12,36,20.50
2013,07,17,12,37,20.50
2013,07,17,12,38,20.50
2013,07,17,12,39,20.60
2013,07,17,12,40,20.50
2013,07,17,12,41,20.50
2013,07,17,12,42,20.50
2013,07,17,12,43,20.50
2013,07,17,12,44,20.60
2013,07,17,12,45,20.60
2013,07,17,12,46,20.60
2013,07,17,12,47,20.60
2013,07,17,12,48,20.50
2013,07,17,12,49,20.40
2013,07,17,12,50,20.40
2013,07,17,12,51,20.40
2013,07,17,12,52,20.50
2013,07,17,12,53,20.50
2013,07,17,12,54,20.60
2013,07,17,12,55,20.60
2013,07,17,12,56,20.60
2013,07,17,12,57,20.70
2013,07,17,12,58,20.70
2013,07,17,12,59,20.70
2013,07,17,13,00,20.70
2013,07,17,13,01,20.70
2013,07,17,13,02,20.70
2013,07,17,13,03,20.80
2013,07,17,13,04,20.80
2013,07,17,13,05,20.80
2013,07,17,13,06,20.80
2013,07,17,13,07,20.90
2013,07,17,13,08,20.90
2013,07,17,13,09,20.90
2013,07,17,13,10,21.00
2013,07,17,13,11,21.00
2013,07,17,13,12,21.10
2013,07,17,13,13,21.10
2013,07,17,13,14,21.10
2013,07,17,13,15,21.10
2013,07,17,13,16,21.10
2013,07,17,13,17,21.00
2013,07,17,13,18,21.10
2013,07,17,13,19,21.10
2013,07,17,13,20,21.10
2013,07,17,13,21,21.20
2013,07,17,13,22,21.10
2013,07,17,13,23,21.10
2013,07,17,13,24,21.10
2013,07,17,13,25,21.10
2013,07,17,13,26,21.00
2013,07,17,13,27,21.00
2013,07,17,13,28,21.10
2013,07,17,13,29,21.00
2013,07,17,13,30,21.00
2013,07,17,13,31,21.00
2013,07,17,13,32,21.00
2013,07,17,13,33,21.00
2013,07,17,13,34,21.10
2013,07,17,13,35,21.10
2013,07,17,13,36,21.10
2013,07,17,13,37,21.10
2013,07,17,13,38,21.20
2013,07,17,13,39,21.20
2013,07,17,13,40,21.30
2013,07,17,13,41,21.30
2013,07,17,13,42,21.40
2013,07,17,13,43,21.40
2013,07,17,13,44,21.40
2013,07,17,13,45,21.40
2013,07,17,13,46,21.40
2013,07,17,13,47,21.40
2013,07,17,13,48,21.40
2013,07,17,13,49,21.50
2013,07,17,13,50,21.50
2013,07,17,13,51,21.60
2013,07,17,13,52,21.60
2013,07,17,13,53,21.70
2013,07,17,13,54,21.70
2013,07,17,13,55,21.70
2013,07,17,13,56,21.70
2013,07,17,13,57,21.70
2013,07,17,13,58,21.70
2013,07,17,13,59,21.80
2013,07,17,14,00,21.80
2013,07,17,14,01,21.90
2013,07,17,14,02,22.00
2013,07,17,14,03,22.00
2013,07,17,14,04,22.00
2013,07,17,14,05,22.00
2013,07,17,14,06,22.00
2013,07,17,14,07,22.00
2013,07,17,14,08,21.90
2013,07,17,14,09,21.80
2013,07,17,14,10,21.60
2013,07,17,14,11,21.60
2013,07,17,14,12,21.50
2013,07,17,14,13,21.50
2013,07,17,14,14,21.40
2013,07,17,14,15,21.40
2013,07,17,14,16,21.30
2013,07,17,14,17,21.30
2013,07,17,14,18,21.20
2013,07,17,14,19,21.20
2013,07,17,14,20,21.20
2013,07,17,14,21,21.20
2013,07,17,14,22,21.20
2013,07,17,14,23,21.20
2013,07,17,14,24,21.20
2013,07,17,14,25,21.10
2013,07,17,14,26,21.20
2013,07,17,14,27,21.20
2013,07,17,14,28,21.20
2013,07,17,14,29,21.20
2013,07,17,14,30,21.20
2013,07,17,14,31,21.20
2013,07,17,14,32,21.20
2013,07,17,14,33,21.30
2013,07,17,14,34,21.30
2013,07,17,14,35,21.30
2013,07,17,14,36,21.30
2013,07,17,14,37,21.30
2013,07,17,14,38,21.40
2013,07,17,14,39,21.40
2013,07,17,14,40,21.50
2013,07,17,14,41,21.50
2013,07,17,14,42,21.60
2013,07,17,14,43,21.60
2013,07,17,14,44,21.60
2013,07,17,14,45,21.60
2013,07,17,14,46,21.60
2013,07,17,14,47,21.60
2013,07,17,14,48,21.60
2013,07,17,14,49,21.60
2013,07,17,14,50,21.70
2013,07,17,14,51,21.70
2013,07,17,14,52,21.70
2013,07,17,14,53,21.60
2013,07,17,14,54,21.60
2013,07,17,14,55,21.50
2013,07,17,14,56,21.50
2013,07,17,14,57,21.50
2013,07,17,14,58,21.40
2013,07,17,14,59,21.40
2013,07,17,15,00,21.40
2013,07,17,15,01,21.40
2013,07,17,15,02,21.40
2013,07,17,15,03,21.30
2013,07,17,15,04,21.30
2013,07,17,15,05,21.10
2013,07,17,15,06,20.90
2013,07,17,15,07,20.80
2013,07,17,15,08,20.60
2013,07,17,15,09,20.50
2013,07,17,15,10,20.50
2013,07,17,15,11,20.60
2013,07,17,15,12,20.60
2013,07,17,15,13,20.70
2013,07,17,15,14,20.70
2013,07,17,15,15,20.70
2013,07,17,15,16,20.70
2013,07,17,15,17,20.70
2013,07,17,15,18,20.60
2013,07,17,15,19,20.60
2013,07,17,15,20,20.50
2013,07,17,15,21,20.40
2013,07,17,15,22,20.30
2013,07,17,15,23,20.30
2013,07,17,15,24,20.20
2013,07,17,15,25,20.20
2013,07,17,15,26,20.30
2013,07,17,15,27,20.30
2013,07,17,15,28,20.20
2013,07,17,15,29,20.20
2013,07,17,15,30,20.10
2013,07,17,15,31,20.10
2013,07,17,15,32,20.10
2013,07,17,15,33,20.10
2013,07,17,15,34,20.10
2013,07,17,15,35,20.10
2013,07,17,15,36,20.10
2013,07,17,15,37,20.10
2013,07,17,15,38,20.10
2013,07,17,15,39,20.20
2013,07,17,15,40,20.30
2013,07,17,15,41,20.40
2013,07,17,15,42,20.40
2013,07,17,15,43,20.40
2013,07,17,15,44,20.50
2013,07,17,15,45,20.50
2013,07,17,15,46,20.60
2013,07,17,15,47,20.70
2013,07,17,15,48,20.70
2013,07,17,15,49,20.70
2013,07,17,15,50,20.80
2013,07,17,15,51,20.80
2013,07,17,15,52,20.80
2013,07,17,15,53,20.80
2013,07,17,15,54,20.80
2013,07,17,15,55,20.80
2013,07,17,15,56,20.80
2013,07,17,15,57,20.80
2013,07,17,15,58,20.80
2013,07,17,15,59,20.80
2013,07,17,16,00,20.80
2013,07,17,16,01,20.90
2013,07,17,16,02,21.00
2013,07,17,16,03,21.00
2013,07,17,16,04,21.10
2013,07,17,16,05,21.20
2013,07,17,16,06,21.20
2013,07,17,16,07,21.30
2013,07,17,16,08,21.30
2013,07,17,16,09,21.30
2013,07,17,16,10,21.30
2013,07,17,16,11,21.30
2013,07,17,16,12,21.30
2013,07,17,16,13,21.40
2013,07,17,16,14,21.40
2013,07,17,16,15,21.40
2013,07,17,16,16,21.40
2013,07,17,16,17,21.50
2013,07,17,16,18,21.50
2013,07,17,16,19,21.50
2013,07,17,16,20,21.50
2013,07,17,16,21,21.50
2013,07,17,16,22,21.60
2013,07,17,16,23,21.60
2013,07,17,16,24,21.60
2013,07,17,16,25,21.70
2013,07,17,16,26,21.70
2013,07,17,16,27,21.70
2013,07,17,16,28,21.80
2013,07,17,16,29,21.80
2013,07,17,16,30,21.80
2013,07,17,16,31,21.80
2013,07,17,16,32,21.90
2013,07,17,16,33,21.90
2013,07,17,16,34,21.90
2013,07,17,16,35,21.90
2013,07,17,16,36,21.90
2013,07,17,16,37,21.90
2013,07,17,16,38,21.90
2013,07,17,16,39,21.90
2013,07,17,16,40,21.90
2013,07,17,16,41,22.00
2013,07,17,16,42,22.00
2013,07,17,16,43,22.00
2013,07,17,16,44,21.90
2013,07,17,16,45,21.90
2013,07,17,16,46,21.90
2013,07,17,16,47,21.90
2013,07,17,16,48,21.90
2013,07,17,16,49,21.90
2013,07,17,16,50,22.00
2013,07,17,16,51,22.00
2013,07,17,16,52,22.10
2013,07,17,16,53,22.10
2013,07,17,16,54,22.10
2013,07,17,16,55,22.10
2013,07,17,16,56,22.10
2013,07,17,16,57,22.10
2013,07,17,16,58,22.10
2013,07,17,16,59,22.10
2013,07,17,17,00,22.10
2013,07,17,17,01,22.10
2013,07,17,17,02,22.10
2013,07,17,17,03,22.00
2013,07,17,17,04,22.00
2013,07,17,17,05,22.00
2013,07,17,17,06,22.00
2013,07,17,17,07,22.00
2013,07,17,17,08,22.00
2013,07,17,17,09,22.00
2013,07,17,17,10,21.90
2013,07,17,17,11,22.00
2013,07,17,17,12,22.00
2013,07,17,17,13,22.00
2013,07,17,17,14,22.00
2013,07,17,17,15,22.00
2013,07,17,17,16,22.10
2013,07,17,17,17,22.10
2013,07,17,17,18,22.00
2013,07,17,17,19,22.00
2013,07,17,17,20,21.90
2013,07,17,17,21,21.90
2013,07,17,17,22,21.80